Marion-Critt Cnty AP, Marion,, KY

7:59 AM CST on December 09, 2019 (GMT -0600)
Marion-Critt Cnty AP, Marion,

Weather History for K5M9 - November, 2019

Change the Weather History Date:

Tuesday, November 12, 2019

  Actual Average (KEHR) Record (KEHR)
Temperature  
Mean Temperature 16 °F -  
Max Temperature 21 °F 55 °F 77 °F (1949)
Min Temperature 10 °F 36 °F 6 °F (2019)
Degree Days  
Heating Degree Days 50    
Moisture  
Dew Point 5 °F    
Average Humidity 63    
Maximum Humidity 84    
Minimum Humidity 43    
Precipitation  
Precipitation 0.00 in - - ()
Sea Level Pressure  
Sea Level Pressure 30.49 in    
Wind  
Wind Speed 10 mph (North)    
Max Wind Speed 17 mph    
Max Gust Speed 29 mph    
Visibility 10 miles    
Events      
Averages and records for this station are not official NWS values.
T = Trace of Precipitation, MM = Missing Value Source: NWS Daily Summary

Daily Weather History Graph

Daily Weather History Graph

Search for Another Location

Airport or City:

Astronomy

Nov. 12, 2019 Rise Set
Actual Time 6:28 AM CST 4:44 PM CST
Civil Twilight 6:00 AM CST 5:11 PM CST
Nautical Twilight 5:29 AM CST 5:43 PM CST
Astronomical Twilight 4:58 AM CST 6:14 PM CST
Moon 5:10 PM CST (11/12) 6:20 AM CST (11/12)
Length of Visible Light 11h 11m
Length of Day
10h 16m
Full, 100% of the Moon is Illuminated
Nov 12
Full
Nov 19
Last Quarter
Nov 26
New
Dec 4
First Quarter
Dec 11
Full

Hourly Weather History & Observations

Time (CST) Temp. Windchill Dew Point Humidity Pressure Visibility Wind Dir Wind Speed Gust Speed Precip Events Conditions
12:35 AM 21.4 °F 8.0 °F 15.4 °F 78% 30.39 in 10.0 mi NNW 15.0 mph 21.9 mph N/A   Overcast
12:55 AM 20.7 °F 6.1 °F 13.1 °F 73% 30.39 in 10.0 mi NNW 17.3 mph 28.8 mph N/A   Overcast
1:15 AM 19.8 °F 5.0 °F 11.7 °F 71% 30.40 in 10.0 mi NNW 17.3 mph 25.3 mph N/A   Overcast
1:35 AM 18.5 °F 5.5 °F 9.5 °F 68% 30.41 in 10.0 mi North 12.7 mph 24.2 mph N/A   Mostly Cloudy
1:55 AM 17.6 °F 5.0 °F 8.6 °F 68% 30.42 in 10.0 mi North 11.5 mph 21.9 mph N/A   Clear
2:15 AM 17.1 °F 2.5 °F 8.6 °F 69% 30.43 in 10.0 mi NNW 15.0 mph 23.0 mph N/A   Clear
2:35 AM 16.5 °F 3.6 °F 8.2 °F 70% 30.44 in 10.0 mi NNW 11.5 mph 16.1 mph N/A   Scattered Clouds
2:55 AM 16.0 °F 1.7 °F 7.9 °F 70% 30.44 in 10.0 mi NNW 13.8 mph 20.7 mph N/A   Clear
3:15 AM 15.4 °F 2.3 °F 7.9 °F 72% 30.45 in 10.0 mi North 11.5 mph 18.4 mph N/A   Clear
3:35 AM 15.1 °F 1.8 °F 7.5 °F 72% 30.45 in 10.0 mi NNW 11.5 mph 18.4 mph N/A   Clear
3:55 AM 14.7 °F 2.1 °F 7.2 °F 72% 30.46 in 10.0 mi North 10.4 mph 17.3 mph N/A   Clear
4:15 AM 14.0 °F 0.5 °F 6.6 °F 72% 30.47 in 10.0 mi NNW 11.5 mph - N/A   Clear
4:35 AM 13.8 °F 4.9 °F 6.3 °F 72% 30.47 in 10.0 mi North 5.8 mph - N/A   Clear
4:55 AM 13.5 °F 1.3 °F 6.1 °F 72% 30.48 in 10.0 mi NNW 9.2 mph - N/A   Clear
5:15 AM 13.1 °F 0.1 °F 5.7 °F 72% 30.48 in 10.0 mi NNW 10.4 mph - N/A   Clear
5:35 AM 12.9 °F 1.6 °F 5.5 °F 72% 30.49 in 10.0 mi NNW 8.1 mph 16.1 mph N/A   Clear
5:55 AM 12.7 °F 0.4 °F 5.2 °F 72% 30.49 in 10.0 mi North 9.2 mph 17.3 mph N/A   Clear
6:15 AM 12.4 °F -2.9 °F 5.2 °F 73% 30.50 in 10.0 mi NNW 13.8 mph 20.7 mph N/A   Clear
6:35 AM 12.2 °F -0.2 °F 4.8 °F 72% 30.50 in 10.0 mi NNW 9.2 mph - N/A   Clear
6:55 AM 12.2 °F -1.0 °F 4.8 °F 72% 30.51 in 10.0 mi NNW 10.4 mph 16.1 mph N/A   Clear
7:15 AM 12.4 °F -2.3 °F 4.6 °F 71% 30.52 in 10.0 mi North 12.7 mph - N/A   Clear
7:35 AM 12.7 °F 1.4 °F 4.5 °F 70% 30.53 in 10.0 mi North 8.1 mph - N/A   Clear
7:55 AM 13.1 °F -0.7 °F 4.5 °F 68% 30.54 in 10.0 mi NNW 11.5 mph 18.4 mph N/A   Clear
8:15 AM 13.5 °F 0.5 °F 4.1 °F 66% 30.55 in 10.0 mi North 10.4 mph 16.1 mph N/A   Clear
8:35 AM 14.9 °F 1.6 °F 4.3 °F 63% 30.56 in 10.0 mi NNW 11.5 mph 19.6 mph N/A   Clear
8:55 AM 15.8 °F 3.4 °F 4.1 °F 60% 30.55 in 10.0 mi North 10.4 mph - N/A   Clear
9:15 AM 15.8 °F 3.4 °F 3.7 °F 59% 30.55 in 10.0 mi North 10.4 mph 16.1 mph N/A   Clear
9:35 AM 16.5 °F 2.4 °F 3.9 °F 58% 30.55 in 10.0 mi North 13.8 mph 19.6 mph N/A   Clear
9:55 AM 17.6 °F 4.3 °F 4.3 °F 56% 30.55 in 10.0 mi North 12.7 mph 17.3 mph N/A   Clear
10:15 AM 17.6 °F 7.3 °F 2.8 °F 53% 30.55 in 10.0 mi North 8.1 mph 19.6 mph N/A   Clear
10:35 AM 18.3 °F 5.9 °F 2.8 °F 51% 30.55 in 10.0 mi North 11.5 mph 20.7 mph N/A   Clear
10:55 AM 18.9 °F 5.9 °F 2.1 °F 48% 30.54 in 10.0 mi North 12.7 mph - N/A   Clear
11:15 AM 19.0 °F 8.2 °F 3.4 °F 51% 30.53 in 10.0 mi NNW 9.2 mph 18.4 mph N/A   Clear
11:35 AM 19.2 °F 7.7 °F 2.3 °F 48% 30.52 in 10.0 mi North 10.4 mph 17.3 mph N/A   Clear
11:55 AM 19.6 °F 8.9 °F 3.0 °F 49% 30.52 in 10.0 mi North 9.2 mph - N/A   Clear
12:15 PM 19.9 °F 9.3 °F 2.3 °F 46% 30.52 in 10.0 mi North 9.2 mph - N/A   Clear
12:35 PM 20.1 °F 8.1 °F 0.9 °F 43% 30.51 in 10.0 mi NNE 11.5 mph 16.1 mph N/A   Clear
12:55 PM 21.0 °F 9.3 °F 3.2 °F 46% 30.51 in 10.0 mi NNW 11.5 mph - N/A   Clear
1:15 PM 21.4 °F 12.8 °F 3.2 °F 46% 30.50 in 10.0 mi NNE 6.9 mph - N/A   Clear
1:35 PM 21.2 °F 10.1 °F 2.3 °F 44% 30.50 in 10.0 mi NNW 10.4 mph - N/A   Clear
1:55 PM 21.7 °F 13.2 °F 3.6 °F 46% 30.50 in 10.0 mi NNW 6.9 mph 18.4 mph N/A   Clear
2:15 PM 21.7 °F 13.2 °F 3.0 °F 45% 30.49 in 10.0 mi NNE 6.9 mph - N/A   Clear
2:35 PM 21.6 °F 12.1 °F 4.1 °F 47% 30.49 in 10.0 mi NNE 8.1 mph - N/A   Clear
2:55 PM 20.7 °F 11.0 °F 1.0 °F 43% 30.49 in 10.0 mi North 8.1 mph - N/A   Clear
3:15 PM 20.3 °F 11.5 °F 2.3 °F 46% 30.48 in 10.0 mi NNE 6.9 mph - N/A   Clear
3:55 PM 19.0 °F 9.0 °F 1.4 °F 46% 30.49 in 10.0 mi NNE 8.1 mph - N/A   Clear
4:15 PM 18.5 °F 8.4 °F 1.8 °F 48% 30.49 in 10.0 mi North 8.1 mph - N/A   Clear
4:35 PM 18.0 °F 9.8 °F 2.1 °F 50% 30.49 in 10.0 mi North 5.8 mph - N/A   Clear
4:55 PM 17.2 °F 8.9 °F 2.8 °F 53% 30.50 in 10.0 mi North 5.8 mph - N/A   Clear
5:15 PM 16.7 °F 9.6 °F 3.2 °F 55% 30.50 in 10.0 mi North 4.6 mph - N/A   Clear
5:35 PM 16.2 °F 9.0 °F 3.6 °F 58% 30.49 in 10.0 mi NNE 4.6 mph - N/A   Clear
5:55 PM 15.8 °F 7.2 °F 3.2 °F 58% 30.50 in 10.0 mi North 5.8 mph - N/A   Clear
6:15 PM 15.6 °F 10.0 °F 4.1 °F 60% 30.50 in 10.0 mi North 3.5 mph - N/A   Clear
6:35 PM 15.1 °F 7.7 °F 3.7 °F 61% 30.50 in 10.0 mi North 4.6 mph - N/A   Clear
6:55 PM 14.9 °F 9.2 °F 3.7 °F 61% 30.51 in 10.0 mi NNE 3.5 mph - N/A   Clear
7:15 PM 14.9 °F 7.5 °F 3.0 °F 59% 30.50 in 10.0 mi North 4.6 mph - N/A   Clear
7:35 PM 14.5 °F - 3.4 °F 61% 30.49 in 10.0 mi Calm Calm - N/A   Clear
7:55 PM 12.7 °F - 5.2 °F 72% 30.49 in 10.0 mi Calm Calm - N/A   Clear
8:15 PM 12.9 °F - 4.5 °F 69% 30.49 in 10.0 mi Calm Calm - N/A   Clear
8:35 PM 12.4 °F - 5.9 °F 75% 30.48 in 10.0 mi Calm Calm - N/A   Clear
8:55 PM 12.0 °F - 6.8 °F 80% 30.48 in 10.0 mi Calm Calm - N/A   Clear
9:15 PM 11.1 °F - 6.8 °F 83% 30.48 in 10.0 mi Calm Calm - N/A   Clear
9:55 PM 11.3 °F - 6.1 °F 80% 30.47 in 10.0 mi Calm Calm - N/A   Clear
10:15 PM 10.4 °F - 6.4 °F 84% 30.47 in 10.0 mi Calm Calm - N/A   Clear
10:35 PM 11.8 °F - 4.8 °F 73% 30.47 in 10.0 mi Calm Calm - N/A   Clear
10:55 PM 10.9 °F - 5.4 °F 78% 30.46 in 10.0 mi Calm Calm - N/A   Clear
11:15 PM 10.2 °F - 5.2 °F 80% 30.46 in 10.0 mi Calm Calm - N/A   Clear
11:35 PM 10.9 °F - 5.4 °F 78% 30.46 in 10.0 mi Calm Calm - N/A   Clear
11:55 PM 10.2 °F - 6.3 °F 84% 30.45 in 10.0 mi Calm Calm - N/A   Clear